Inquirer Daily News

Weather

Get conditions and forecasts for any City, State, ZIP code or Country:  
Northeast Philadelphia, PA
on Wednesday, April 18, 2012

Wednesday
Previous Day Next Day
Daily Summary
 ActualAverage (KTTN)Record (KTTN)
Temperature
Mean Temperature °F 52°F  
Max Temperature 61°F 62°F 93°F (1976)
Min Temperature 51°F 42°F 29°F (1875)
Degree Days
Heating Degree Days 9 13  
Month to date heating degree days 285  
Since 1 July heating degree days 4831  
Cooling Degree Days 0 0  
Month to date cooling degree days 0  
Year to date cooling degree days 0  
Growing Degree Days6 (Base °F )  
Moisture
Dew Point 35°F   
Average Humidity 49    
Maximum Humidity 80    
Minimum Humidity 34    
Precipitation
Precipitation 0.01 in 0.12 in 1.94 in (1924)
Month to date precipitation 2.31  
Year to date precipitation 11.92  
Wind
Wind Speed 7 mph   
Max Wind Speed 12 mph   
Max Gust Speed mph   
Visibility 10 miles   
Events Rain   

Key: T is trace of precipitation, MM is missing value
Source: NWS Daily Summary
Time(EDT)TemperatureDew PointHumidity Pressure Visibility Wind DirectionWind SpeedGust SpeedPrecipitationEvents Conditions
12:54 AM 60.1°F 33.1°F 36% 30.17 in 10.0 miles North 6.9 mph - N/A   Clear
1:54 AM 61.0°F 32.0°F 34% 30.18 in 10.0 miles North 11.5 mph - N/A   Clear
2:54 AM 59.0°F 33.1°F 38% 30.19 in 10.0 miles North 11.5 mph - N/A   Clear
3:54 AM 57.0°F 30.9°F 37% 30.22 in 10.0 miles North 10.4 mph - N/A   Clear
4:54 AM 54.0°F 30.9°F 41% 30.22 in 10.0 miles NNE 10.4 mph - N/A   Clear
5:54 AM 53.1°F 28.9°F 40% 30.24 in 10.0 miles NNE 9.2 mph - N/A   Mostly Cloudy
6:54 AM 51.1°F 30.0°F 44% 30.27 in 10.0 miles NNE 11.5 mph - N/A   Mostly Cloudy
8:54 AM 51.1°F 30.0°F 44% 30.28 in 10.0 miles North 9.2 mph - N/A   Mostly Cloudy
9:54 AM 51.1°F 28.9°F 43% 30.29 in 10.0 miles North 9.2 mph - N/A   Overcast
10:54 AM 52.0°F 28.9°F 41% 30.28 in 10.0 miles NE 4.6 mph - N/A   Overcast
11:54 AM 55.0°F 32.0°F 42% 30.27 in 10.0 miles NNW 5.8 mph - 0.00 in Rain Light Rain
12:54 PM 54.0°F 34.0°F 47% 30.26 in 10.0 miles Calm Calm - 0.00 in Rain Light Rain
1:54 PM 54.0°F 35.1°F 49% 30.24 in 10.0 miles Calm Calm - 0.00 in   Overcast
2:54 PM 55.0°F 35.1°F 47% 30.22 in 10.0 miles Calm Calm - N/A   Overcast
3:54 PM 55.0°F 35.1°F 47% 30.20 in 10.0 miles WSW 3.5 mph - N/A   Mostly Cloudy
4:54 PM 55.9°F 35.1°F 45% 30.20 in 10.0 miles West 4.6 mph - 0.00 in Rain Light Rain
5:54 PM 54.0°F 37.0°F 53% 30.19 in 10.0 miles WNW 5.8 mph - 0.00 in Rain Light Rain
6:54 PM 53.1°F 39.9°F 61% 30.17 in 10.0 miles West 4.6 mph - 0.00 in Rain Light Rain
7:54 PM 53.6°F 39.2°F 58% 30.17 in 10.0 miles West 3.5 mph - N/A   Overcast
8:54 PM 53.1°F 39.9°F 61% 30.17 in 10.0 miles Calm Calm - N/A   Overcast
9:54 PM 52.0°F 41.0°F 66% 30.16 in 10.0 miles Calm Calm - N/A   Mostly Cloudy
10:54 PM 52.0°F 44.1°F 74% 30.15 in 10.0 miles Calm Calm - N/A   Overcast
11:54 PM 51.1°F 45.0°F 80% 30.15 in 10.0 miles NW 4.6 mph - 0.01 in Rain Light Rain
Astronomy
Sunrise:06:17 AM (EDT) Moon Rise:04:41 AM (EDT)4/18
Sunset:07:42 PM (EDT) Moon Set:05:30 PM (EDT)4/18
Moon Phase
Apr. 18 Apr. 21 Apr. 29 May. 05 May. 12

Copyright © 2014 The Weather Underground, Inc.